owner,sensor,date,latitude,longitude,vertical_datum,sea_water_temperature,qcFlag 
COMPS,ioos:station:USF.COMPS:FHP:1,2014-04-01T00:00:00Z,28.1530,-82.8010,-1.0,16.01,2 
COMPS,ioos:station:USF.COMPS:FHP:1,2014-04-01T00:06:00Z,28.1530,-82.8010,-1.0,15.96,2 
COMPS,ioos:station:USF.COMPS:FHP:1,2014-04-01T00:12:00Z,28.1530,-82.8010,-1.0,15.96,2 
COMPS,ioos:station:USF.COMPS:FHP:1,2014-04-01T00:18:00Z,28.1530,-82.8010,-1.0,15.93,2 
COMPS,ioos:station:USF.COMPS:FHP:1,2014-04-01T00:24:00Z,28.1530,-82.8010,-1.0,15.91,2 
COMPS,ioos:station:USF.COMPS:FHP:1,2014-04-01T00:30:00Z,28.1530,-82.8010,-1.0,15.89,2 
COMPS,ioos:station:USF.COMPS:FHP:1,2014-04-01T00:36:00Z,28.1530,-82.8010,-1.0,15.9,2 
COMPS,ioos:station:USF.COMPS:FHP:1,2014-04-01T00:42:00Z,28.1530,-82.8010,-1.0,15.88,2 
COMPS,ioos:station:USF.COMPS:FHP:1,2014-04-01T00:48:00Z,28.1530,-82.8010,-1.0,15.82,2 
COMPS,ioos:station:USF.COMPS:FHP:1,2014-04-01T00:54:00Z,28.1530,-82.8010,-1.0,15.77,2 
COMPS,ioos:station:USF.COMPS:FHP:1,2014-04-01T01:00:00Z,28.1530,-82.8010,-1.0,15.74,2 
COMPS,ioos:station:USF.COMPS:FHP:1,2014-04-01T01:06:00Z,28.1530,-82.8010,-1.0,15.73,2 
COMPS,ioos:station:USF.COMPS:FHP:1,2014-04-01T01:12:00Z,28.1530,-82.8010,-1.0,15.74,2 
COMPS,ioos:station:USF.COMPS:FHP:1,2014-04-01T01:18:00Z,28.1530,-82.8010,-1.0,15.75,2 
COMPS,ioos:station:USF.COMPS:FHP:1,2014-04-01T01:24:00Z,28.1530,-82.8010,-1.0,15.75,2 
COMPS,ioos:station:USF.COMPS:FHP:1,2014-04-01T01:30:00Z,28.1530,-82.8010,-1.0,15.76,2 
COMPS,ioos:station:USF.COMPS:FHP:1,2014-04-01T01:36:00Z,28.1530,-82.8010,-1.0,15.79,2 
COMPS,ioos:station:USF.COMPS:FHP:1,2014-04-01T01:42:00Z,28.1530,-82.8010,-1.0,15.78,2 
COMPS,ioos:station:USF.COMPS:FHP:1,2014-04-01T01:48:00Z,28.1530,-82.8010,-1.0,15.81,2 
COMPS,ioos:station:USF.COMPS:FHP:1,2014-04-01T01:54:00Z,28.1530,-82.8010,-1.0,15.83,2 
COMPS,ioos:station:USF.COMPS:FHP:1,2014-04-01T02:00:00Z,28.1530,-82.8010,-1.0,15.8,2 
COMPS,ioos:station:USF.COMPS:FHP:1,2014-04-01T02:06:00Z,28.1530,-82.8010,-1.0,15.72,2 
COMPS,ioos:station:USF.COMPS:FHP:1,2014-04-01T02:12:00Z,28.1530,-82.8010,-1.0,15.75,2 
COMPS,ioos:station:USF.COMPS:FHP:1,2014-04-01T02:18:00Z,28.1530,-82.8010,-1.0,15.85,2 
COMPS,ioos:station:USF.COMPS:FHP:1,2014-04-01T02:24:00Z,28.1530,-82.8010,-1.0,15.86,2 
COMPS,ioos:station:USF.COMPS:FHP:1,2014-04-01T02:30:00Z,28.1530,-82.8010,-1.0,16.02,2 
COMPS,ioos:station:USF.COMPS:FHP:1,2014-04-01T02:36:00Z,28.1530,-82.8010,-1.0,16.19,2 
COMPS,ioos:station:USF.COMPS:FHP:1,2014-04-01T02:42:00Z,28.1530,-82.8010,-1.0,18.07,2 
COMPS,ioos:station:USF.COMPS:FHP:1,2014-04-01T02:48:00Z,28.1530,-82.8010,-1.0,18.43,2 
COMPS,ioos:station:USF.COMPS:FHP:1,2014-04-01T02:54:00Z,28.1530,-82.8010,-1.0,18.46,2 
COMPS,ioos:station:USF.COMPS:FHP:1,2014-04-01T03:00:00Z,28.1530,-82.8010,-1.0,18.5,2 
COMPS,ioos:station:USF.COMPS:FHP:1,2014-04-01T03:06:00Z,28.1530,-82.8010,-1.0,18.53,2 
COMPS,ioos:station:USF.COMPS:FHP:1,2014-04-01T03:12:00Z,28.1530,-82.8010,-1.0,18.53,2 
COMPS,ioos:station:USF.COMPS:FHP:1,2014-04-01T03:18:00Z,28.1530,-82.8010,-1.0,18.53,2 
COMPS,ioos:station:USF.COMPS:FHP:1,2014-04-01T03:24:00Z,28.1530,-82.8010,-1.0,18.53,2 
COMPS,ioos:station:USF.COMPS:FHP:1,2014-04-01T03:30:00Z,28.1530,-82.8010,-1.0,18.56,2 
COMPS,ioos:station:USF.COMPS:FHP:1,2014-04-01T03:36:00Z,28.1530,-82.8010,-1.0,18.57,2 
COMPS,ioos:station:USF.COMPS:FHP:1,2014-04-01T03:42:00Z,28.1530,-82.8010,-1.0,18.56,2 
COMPS,ioos:station:USF.COMPS:FHP:1,2014-04-01T03:48:00Z,28.1530,-82.8010,-1.0,18.56,2 
COMPS,ioos:station:USF.COMPS:FHP:1,2014-04-01T03:54:00Z,28.1530,-82.8010,-1.0,18.54,2 
COMPS,ioos:station:USF.COMPS:FHP:1,2014-04-01T04:00:00Z,28.1530,-82.8010,-1.0,18.56,2 
COMPS,ioos:station:USF.COMPS:FHP:1,2014-04-01T04:06:00Z,28.1530,-82.8010,-1.0,18.59,2 
COMPS,ioos:station:USF.COMPS:FHP:1,2014-04-01T04:12:00Z,28.1530,-82.8010,-1.0,18.57,2 
COMPS,ioos:station:USF.COMPS:FHP:1,2014-04-01T04:18:00Z,28.1530,-82.8010,-1.0,18.59,2 
COMPS,ioos:station:USF.COMPS:FHP:1,2014-04-01T04:24:00Z,28.1530,-82.8010,-1.0,18.58,2 
COMPS,ioos:station:USF.COMPS:FHP:1,2014-04-01T04:30:00Z,28.1530,-82.8010,-1.0,18.58,2 
COMPS,ioos:station:USF.COMPS:FHP:1,2014-04-01T04:36:00Z,28.1530,-82.8010,-1.0,18.49,2 
COMPS,ioos:station:USF.COMPS:FHP:1,2014-04-01T04:42:00Z,28.1530,-82.8010,-1.0,18.43,2 
COMPS,ioos:station:USF.COMPS:FHP:1,2014-04-01T04:48:00Z,28.1530,-82.8010,-1.0,18.45,2 
COMPS,ioos:station:USF.COMPS:FHP:1,2014-04-01T04:54:00Z,28.1530,-82.8010,-1.0,18.39,2 
COMPS,ioos:station:USF.COMPS:FHP:1,2014-04-01T05:00:00Z,28.1530,-82.8010,-1.0,18.42,2 
COMPS,ioos:station:USF.COMPS:FHP:1,2014-04-01T05:06:00Z,28.1530,-82.8010,-1.0,18.43,2 
COMPS,ioos:station:USF.COMPS:FHP:1,2014-04-01T05:12:00Z,28.1530,-82.8010,-1.0,18.35,2 
COMPS,ioos:station:USF.COMPS:FHP:1,2014-04-01T05:18:00Z,28.1530,-82.8010,-1.0,18.31,2 
COMPS,ioos:station:USF.COMPS:FHP:1,2014-04-01T05:24:00Z,28.1530,-82.8010,-1.0,18.25,2 
COMPS,ioos:station:USF.COMPS:FHP:1,2014-04-01T05:30:00Z,28.1530,-82.8010,-1.0,18.32,2 
COMPS,ioos:station:USF.COMPS:FHP:1,2014-04-01T05:36:00Z,28.1530,-82.8010,-1.0,18.38,2 
COMPS,ioos:station:USF.COMPS:FHP:1,2014-04-01T05:42:00Z,28.1530,-82.8010,-1.0,18.37,2 
COMPS,ioos:station:USF.COMPS:FHP:1,2014-04-01T05:48:00Z,28.1530,-82.8010,-1.0,18.36,2 
COMPS,ioos:station:USF.COMPS:FHP:1,2014-04-01T05:54:00Z,28.1530,-82.8010,-1.0,18.34,2 
COMPS,ioos:station:USF.COMPS:FHP:1,2014-04-01T06:00:00Z,28.1530,-82.8010,-1.0,18.34,2 
COMPS,ioos:station:USF.COMPS:FHP:1,2014-04-01T06:06:00Z,28.1530,-82.8010,-1.0,18.4,2 
COMPS,ioos:station:USF.COMPS:FHP:1,2014-04-01T06:12:00Z,28.1530,-82.8010,-1.0,18.43,2 
COMPS,ioos:station:USF.COMPS:FHP:1,2014-04-01T06:18:00Z,28.1530,-82.8010,-1.0,18.44,2 
COMPS,ioos:station:USF.COMPS:FHP:1,2014-04-01T06:24:00Z,28.1530,-82.8010,-1.0,18.42,2 
COMPS,ioos:station:USF.COMPS:FHP:1,2014-04-01T06:30:00Z,28.1530,-82.8010,-1.0,18.42,2 
COMPS,ioos:station:USF.COMPS:FHP:1,2014-04-01T06:36:00Z,28.1530,-82.8010,-1.0,18.41,2 
COMPS,ioos:station:USF.COMPS:FHP:1,2014-04-01T06:42:00Z,28.1530,-82.8010,-1.0,18.39,2 
COMPS,ioos:station:USF.COMPS:FHP:1,2014-04-01T06:48:00Z,28.1530,-82.8010,-1.0,18.35,2 
COMPS,ioos:station:USF.COMPS:FHP:1,2014-04-01T06:54:00Z,28.1530,-82.8010,-1.0,18.31,2 
COMPS,ioos:station:USF.COMPS:FHP:1,2014-04-01T07:00:00Z,28.1530,-82.8010,-1.0,18.3,2 
COMPS,ioos:station:USF.COMPS:FHP:1,2014-04-01T07:06:00Z,28.1530,-82.8010,-1.0,18.28,2 
COMPS,ioos:station:USF.COMPS:FHP:1,2014-04-01T07:12:00Z,28.1530,-82.8010,-1.0,18.26,2 
COMPS,ioos:station:USF.COMPS:FHP:1,2014-04-01T07:18:00Z,28.1530,-82.8010,-1.0,18.27,2 
COMPS,ioos:station:USF.COMPS:FHP:1,2014-04-01T07:24:00Z,28.1530,-82.8010,-1.0,18.24,2 
COMPS,ioos:station:USF.COMPS:FHP:1,2014-04-01T07:30:00Z,28.1530,-82.8010,-1.0,18.24,2 
COMPS,ioos:station:USF.COMPS:FHP:1,2014-04-01T07:36:00Z,28.1530,-82.8010,-1.0,18.27,2 
COMPS,ioos:station:USF.COMPS:FHP:1,2014-04-01T07:42:00Z,28.1530,-82.8010,-1.0,18.24,2 
COMPS,ioos:station:USF.COMPS:FHP:1,2014-04-01T07:48:00Z,28.1530,-82.8010,-1.0,18.23,2 
COMPS,ioos:station:USF.COMPS:FHP:1,2014-04-01T07:54:00Z,28.1530,-82.8010,-1.0,18.25,2 
COMPS,ioos:station:USF.COMPS:FHP:1,2014-04-01T08:00:00Z,28.1530,-82.8010,-1.0,18.25,2 
COMPS,ioos:station:USF.COMPS:FHP:1,2014-04-01T08:06:00Z,28.1530,-82.8010,-1.0,18.24,2 
COMPS,ioos:station:USF.COMPS:FHP:1,2014-04-01T08:12:00Z,28.1530,-82.8010,-1.0,18.23,2 
COMPS,ioos:station:USF.COMPS:FHP:1,2014-04-01T08:18:00Z,28.1530,-82.8010,-1.0,18.22,2 
COMPS,ioos:station:USF.COMPS:FHP:1,2014-04-01T08:24:00Z,28.1530,-82.8010,-1.0,18.17,2 
COMPS,ioos:station:USF.COMPS:FHP:1,2014-04-01T08:30:00Z,28.1530,-82.8010,-1.0,18.1,2 
COMPS,ioos:station:USF.COMPS:FHP:1,2014-04-01T08:36:00Z,28.1530,-82.8010,-1.0,18.11,2 
COMPS,ioos:station:USF.COMPS:FHP:1,2014-04-01T08:42:00Z,28.1530,-82.8010,-1.0,18.06,2 
COMPS,ioos:station:USF.COMPS:FHP:1,2014-04-01T08:48:00Z,28.1530,-82.8010,-1.0,18.02,2 
COMPS,ioos:station:USF.COMPS:FHP:1,2014-04-01T08:54:00Z,28.1530,-82.8010,-1.0,17.97,2 
COMPS,ioos:station:USF.COMPS:FHP:1,2014-04-01T09:00:00Z,28.1530,-82.8010,-1.0,17.93,2 
COMPS,ioos:station:USF.COMPS:FHP:1,2014-04-01T09:06:00Z,28.1530,-82.8010,-1.0,17.91,2 
COMPS,ioos:station:USF.COMPS:FHP:1,2014-04-01T09:12:00Z,28.1530,-82.8010,-1.0,17.91,2 
COMPS,ioos:station:USF.COMPS:FHP:1,2014-04-01T09:18:00Z,28.1530,-82.8010,-1.0,17.86,2 
COMPS,ioos:station:USF.COMPS:FHP:1,2014-04-01T09:24:00Z,28.1530,-82.8010,-1.0,17.84,2 
COMPS,ioos:station:USF.COMPS:FHP:1,2014-04-01T09:30:00Z,28.1530,-82.8010,-1.0,17.87,2 
COMPS,ioos:station:USF.COMPS:FHP:1,2014-04-01T09:36:00Z,28.1530,-82.8010,-1.0,17.81,2 
COMPS,ioos:station:USF.COMPS:FHP:1,2014-04-01T09:42:00Z,28.1530,-82.8010,-1.0,17.71,2 
COMPS,ioos:station:USF.COMPS:FHP:1,2014-04-01T09:48:00Z,28.1530,-82.8010,-1.0,17.65,2 
COMPS,ioos:station:USF.COMPS:FHP:1,2014-04-01T09:54:00Z,28.1530,-82.8010,-1.0,17.57,2 
COMPS,ioos:station:USF.COMPS:FHP:1,2014-04-01T10:00:00Z,28.1530,-82.8010,-1.0,17.53,2 
COMPS,ioos:station:USF.COMPS:FHP:1,2014-04-01T10:06:00Z,28.1530,-82.8010,-1.0,17.44,2 
COMPS,ioos:station:USF.COMPS:FHP:1,2014-04-01T10:12:00Z,28.1530,-82.8010,-1.0,17.37,2 
COMPS,ioos:station:USF.COMPS:FHP:1,2014-04-01T10:18:00Z,28.1530,-82.8010,-1.0,17.28,2 
COMPS,ioos:station:USF.COMPS:FHP:1,2014-04-01T10:24:00Z,28.1530,-82.8010,-1.0,17.23,2 
COMPS,ioos:station:USF.COMPS:FHP:1,2014-04-01T10:30:00Z,28.1530,-82.8010,-1.0,17.2,2 
COMPS,ioos:station:USF.COMPS:FHP:1,2014-04-01T10:36:00Z,28.1530,-82.8010,-1.0,17.15,2 
COMPS,ioos:station:USF.COMPS:FHP:1,2014-04-01T10:42:00Z,28.1530,-82.8010,-1.0,16.7,2 
COMPS,ioos:station:USF.COMPS:FHP:1,2014-04-01T10:48:00Z,28.1530,-82.8010,-1.0,14.37,2 
COMPS,ioos:station:USF.COMPS:FHP:1,2014-04-01T10:54:00Z,28.1530,-82.8010,-1.0,13.94,2 
COMPS,ioos:station:USF.COMPS:FHP:1,2014-04-01T11:00:00Z,28.1530,-82.8010,-1.0,13.76,2 
COMPS,ioos:station:USF.COMPS:FHP:1,2014-04-01T11:06:00Z,28.1530,-82.8010,-1.0,13.56,2 
COMPS,ioos:station:USF.COMPS:FHP:1,2014-04-01T11:12:00Z,28.1530,-82.8010,-1.0,13.47,2 
COMPS,ioos:station:USF.COMPS:FHP:1,2014-04-01T11:18:00Z,28.1530,-82.8010,-1.0,13.36,2 
COMPS,ioos:station:USF.COMPS:FHP:1,2014-04-01T11:24:00Z,28.1530,-82.8010,-1.0,13.21,2 
COMPS,ioos:station:USF.COMPS:FHP:1,2014-04-01T11:30:00Z,28.1530,-82.8010,-1.0,13.04,2 
COMPS,ioos:station:USF.COMPS:FHP:1,2014-04-01T11:36:00Z,28.1530,-82.8010,-1.0,12.92,2 
COMPS,ioos:station:USF.COMPS:FHP:1,2014-04-01T11:42:00Z,28.1530,-82.8010,-1.0,12.88,2 
COMPS,ioos:station:USF.COMPS:FHP:1,2014-04-01T11:48:00Z,28.1530,-82.8010,-1.0,12.88,2 
COMPS,ioos:station:USF.COMPS:FHP:1,2014-04-01T11:54:00Z,28.1530,-82.8010,-1.0,12.91,2 
COMPS,ioos:station:USF.COMPS:FHP:1,2014-04-01T12:00:00Z,28.1530,-82.8010,-1.0,12.89,2 
COMPS,ioos:station:USF.COMPS:FHP:1,2014-04-01T12:06:00Z,28.1530,-82.8010,-1.0,12.96,2 
COMPS,ioos:station:USF.COMPS:FHP:1,2014-04-01T12:12:00Z,28.1530,-82.8010,-1.0,13.1,2 
COMPS,ioos:station:USF.COMPS:FHP:1,2014-04-01T12:18:00Z,28.1530,-82.8010,-1.0,13.26,2 
COMPS,ioos:station:USF.COMPS:FHP:1,2014-04-01T12:24:00Z,28.1530,-82.8010,-1.0,13.44,2 
COMPS,ioos:station:USF.COMPS:FHP:1,2014-04-01T12:30:00Z,28.1530,-82.8010,-1.0,13.62,2 
COMPS,ioos:station:USF.COMPS:FHP:1,2014-04-01T12:36:00Z,28.1530,-82.8010,-1.0,13.84,2 
COMPS,ioos:station:USF.COMPS:FHP:1,2014-04-01T12:42:00Z,28.1530,-82.8010,-1.0,14.03,2 
COMPS,ioos:station:USF.COMPS:FHP:1,2014-04-01T12:48:00Z,28.1530,-82.8010,-1.0,14.29,2 
COMPS,ioos:station:USF.COMPS:FHP:1,2014-04-01T12:54:00Z,28.1530,-82.8010,-1.0,14.56,2 
COMPS,ioos:station:USF.COMPS:FHP:1,2014-04-01T13:00:00Z,28.1530,-82.8010,-1.0,16.63,2 
COMPS,ioos:station:USF.COMPS:FHP:1,2014-04-01T13:06:00Z,28.1530,-82.8010,-1.0,17.08,2 
COMPS,ioos:station:USF.COMPS:FHP:1,2014-04-01T13:12:00Z,28.1530,-82.8010,-1.0,17.19,2 
COMPS,ioos:station:USF.COMPS:FHP:1,2014-04-01T13:18:00Z,28.1530,-82.8010,-1.0,17.25,2 
COMPS,ioos:station:USF.COMPS:FHP:1,2014-04-01T13:24:00Z,28.1530,-82.8010,-1.0,17.33,2 
COMPS,ioos:station:USF.COMPS:FHP:1,2014-04-01T13:30:00Z,28.1530,-82.8010,-1.0,17.42,2 
COMPS,ioos:station:USF.COMPS:FHP:1,2014-04-01T13:36:00Z,28.1530,-82.8010,-1.0,17.49,2 
COMPS,ioos:station:USF.COMPS:FHP:1,2014-04-01T13:42:00Z,28.1530,-82.8010,-1.0,17.57,2 
COMPS,ioos:station:USF.COMPS:FHP:1,2014-04-01T13:48:00Z,28.1530,-82.8010,-1.0,17.64,2 
COMPS,ioos:station:USF.COMPS:FHP:1,2014-04-01T13:54:00Z,28.1530,-82.8010,-1.0,17.71,2 
COMPS,ioos:station:USF.COMPS:FHP:1,2014-04-01T14:00:00Z,28.1530,-82.8010,-1.0,17.76,2 
COMPS,ioos:station:USF.COMPS:FHP:1,2014-04-01T14:06:00Z,28.1530,-82.8010,-1.0,17.8,2 
COMPS,ioos:station:USF.COMPS:FHP:1,2014-04-01T14:12:00Z,28.1530,-82.8010,-1.0,17.85,2 
COMPS,ioos:station:USF.COMPS:FHP:1,2014-04-01T14:18:00Z,28.1530,-82.8010,-1.0,17.92,2 
COMPS,ioos:station:USF.COMPS:FHP:1,2014-04-01T14:24:00Z,28.1530,-82.8010,-1.0,17.99,2 
COMPS,ioos:station:USF.COMPS:FHP:1,2014-04-01T14:30:00Z,28.1530,-82.8010,-1.0,18.05,2 
COMPS,ioos:station:USF.COMPS:FHP:1,2014-04-01T14:36:00Z,28.1530,-82.8010,-1.0,18.1,2 
COMPS,ioos:station:USF.COMPS:FHP:1,2014-04-01T14:42:00Z,28.1530,-82.8010,-1.0,18.15,2 
COMPS,ioos:station:USF.COMPS:FHP:1,2014-04-01T14:48:00Z,28.1530,-82.8010,-1.0,18.19,2 
COMPS,ioos:station:USF.COMPS:FHP:1,2014-04-01T14:54:00Z,28.1530,-82.8010,-1.0,18.24,2 
COMPS,ioos:station:USF.COMPS:FHP:1,2014-04-01T15:00:00Z,28.1530,-82.8010,-1.0,18.28,2 
COMPS,ioos:station:USF.COMPS:FHP:1,2014-04-01T15:06:00Z,28.1530,-82.8010,-1.0,18.33,2 
COMPS,ioos:station:USF.COMPS:FHP:1,2014-04-01T15:12:00Z,28.1530,-82.8010,-1.0,18.37,2 
COMPS,ioos:station:USF.COMPS:FHP:1,2014-04-01T15:18:00Z,28.1530,-82.8010,-1.0,18.42,2 
COMPS,ioos:station:USF.COMPS:FHP:1,2014-04-01T15:24:00Z,28.1530,-82.8010,-1.0,18.47,2 
COMPS,ioos:station:USF.COMPS:FHP:1,2014-04-01T15:30:00Z,28.1530,-82.8010,-1.0,18.51,2 
COMPS,ioos:station:USF.COMPS:FHP:1,2014-04-01T15:36:00Z,28.1530,-82.8010,-1.0,18.54,2 
COMPS,ioos:station:USF.COMPS:FHP:1,2014-04-01T15:42:00Z,28.1530,-82.8010,-1.0,18.6,2 
COMPS,ioos:station:USF.COMPS:FHP:1,2014-04-01T15:48:00Z,28.1530,-82.8010,-1.0,18.61,2 
COMPS,ioos:station:USF.COMPS:FHP:1,2014-04-01T15:54:00Z,28.1530,-82.8010,-1.0,18.6,2 
COMPS,ioos:station:USF.COMPS:FHP:1,2014-04-01T16:00:00Z,28.1530,-82.8010,-1.0,18.69,2 
COMPS,ioos:station:USF.COMPS:FHP:1,2014-04-01T16:06:00Z,28.1530,-82.8010,-1.0,18.65,2 
COMPS,ioos:station:USF.COMPS:FHP:1,2014-04-01T16:12:00Z,28.1530,-82.8010,-1.0,18.64,2 
COMPS,ioos:station:USF.COMPS:FHP:1,2014-04-01T16:18:00Z,28.1530,-82.8010,-1.0,18.67,2 
COMPS,ioos:station:USF.COMPS:FHP:1,2014-04-01T16:24:00Z,28.1530,-82.8010,-1.0,18.67,2 
COMPS,ioos:station:USF.COMPS:FHP:1,2014-04-01T16:30:00Z,28.1530,-82.8010,-1.0,18.7,2 
COMPS,ioos:station:USF.COMPS:FHP:1,2014-04-01T16:36:00Z,28.1530,-82.8010,-1.0,18.73,2 
COMPS,ioos:station:USF.COMPS:FHP:1,2014-04-01T16:42:00Z,28.1530,-82.8010,-1.0,18.9,2 
COMPS,ioos:station:USF.COMPS:FHP:1,2014-04-01T16:48:00Z,28.1530,-82.8010,-1.0,19.04,2 
COMPS,ioos:station:USF.COMPS:FHP:1,2014-04-01T16:54:00Z,28.1530,-82.8010,-1.0,19.12,2 
COMPS,ioos:station:USF.COMPS:FHP:1,2014-04-01T17:00:00Z,28.1530,-82.8010,-1.0,19.12,2 
COMPS,ioos:station:USF.COMPS:FHP:1,2014-04-01T17:06:00Z,28.1530,-82.8010,-1.0,19.2,2 
COMPS,ioos:station:USF.COMPS:FHP:1,2014-04-01T17:12:00Z,28.1530,-82.8010,-1.0,19.27,2 
COMPS,ioos:station:USF.COMPS:FHP:1,2014-04-01T17:18:00Z,28.1530,-82.8010,-1.0,19.34,2 
COMPS,ioos:station:USF.COMPS:FHP:1,2014-04-01T17:24:00Z,28.1530,-82.8010,-1.0,19.37,2 
COMPS,ioos:station:USF.COMPS:FHP:1,2014-04-01T17:30:00Z,28.1530,-82.8010,-1.0,19.45,2 
COMPS,ioos:station:USF.COMPS:FHP:1,2014-04-01T17:36:00Z,28.1530,-82.8010,-1.0,19.54,2 
COMPS,ioos:station:USF.COMPS:FHP:1,2014-04-01T17:42:00Z,28.1530,-82.8010,-1.0,19.67,2 
COMPS,ioos:station:USF.COMPS:FHP:1,2014-04-01T17:48:00Z,28.1530,-82.8010,-1.0,19.75,2 
COMPS,ioos:station:USF.COMPS:FHP:1,2014-04-01T17:54:00Z,28.1530,-82.8010,-1.0,19.78,2 
COMPS,ioos:station:USF.COMPS:FHP:1,2014-04-01T18:00:00Z,28.1530,-82.8010,-1.0,19.79,2 
COMPS,ioos:station:USF.COMPS:FHP:1,2014-04-01T18:06:00Z,28.1530,-82.8010,-1.0,19.82,2 
COMPS,ioos:station:USF.COMPS:FHP:1,2014-04-01T18:12:00Z,28.1530,-82.8010,-1.0,19.9,2 
COMPS,ioos:station:USF.COMPS:FHP:1,2014-04-01T18:18:00Z,28.1530,-82.8010,-1.0,19.94,2 
COMPS,ioos:station:USF.COMPS:FHP:1,2014-04-01T18:24:00Z,28.1530,-82.8010,-1.0,20.0,2 
COMPS,ioos:station:USF.COMPS:FHP:1,2014-04-01T18:30:00Z,28.1530,-82.8010,-1.0,20.09,2 
COMPS,ioos:station:USF.COMPS:FHP:1,2014-04-01T18:36:00Z,28.1530,-82.8010,-1.0,20.15,2 
COMPS,ioos:station:USF.COMPS:FHP:1,2014-04-01T18:42:00Z,28.1530,-82.8010,-1.0,20.22,2 
COMPS,ioos:station:USF.COMPS:FHP:1,2014-04-01T18:48:00Z,28.1530,-82.8010,-1.0,20.27,2 
COMPS,ioos:station:USF.COMPS:FHP:1,2014-04-01T18:54:00Z,28.1530,-82.8010,-1.0,20.3,2 
COMPS,ioos:station:USF.COMPS:FHP:1,2014-04-01T19:00:00Z,28.1530,-82.8010,-1.0,20.35,2 
COMPS,ioos:station:USF.COMPS:FHP:1,2014-04-01T19:06:00Z,28.1530,-82.8010,-1.0,20.37,2 
COMPS,ioos:station:USF.COMPS:FHP:1,2014-04-01T19:12:00Z,28.1530,-82.8010,-1.0,20.34,2 
COMPS,ioos:station:USF.COMPS:FHP:1,2014-04-01T19:18:00Z,28.1530,-82.8010,-1.0,20.32,2 
COMPS,ioos:station:USF.COMPS:FHP:1,2014-04-01T19:24:00Z,28.1530,-82.8010,-1.0,20.34,2 
COMPS,ioos:station:USF.COMPS:FHP:1,2014-04-01T19:30:00Z,28.1530,-82.8010,-1.0,20.38,2 
COMPS,ioos:station:USF.COMPS:FHP:1,2014-04-01T19:36:00Z,28.1530,-82.8010,-1.0,20.46,2 
COMPS,ioos:station:USF.COMPS:FHP:1,2014-04-01T19:42:00Z,28.1530,-82.8010,-1.0,20.5,2 
COMPS,ioos:station:USF.COMPS:FHP:1,2014-04-01T19:48:00Z,28.1530,-82.8010,-1.0,20.5,2 
COMPS,ioos:station:USF.COMPS:FHP:1,2014-04-01T19:54:00Z,28.1530,-82.8010,-1.0,20.5,2 
COMPS,ioos:station:USF.COMPS:FHP:1,2014-04-01T20:00:00Z,28.1530,-82.8010,-1.0,20.53,2 
COMPS,ioos:station:USF.COMPS:FHP:1,2014-04-01T20:06:00Z,28.1530,-82.8010,-1.0,20.74,2 
COMPS,ioos:station:USF.COMPS:FHP:1,2014-04-01T20:12:00Z,28.1530,-82.8010,-1.0,20.83,2 
COMPS,ioos:station:USF.COMPS:FHP:1,2014-04-01T20:18:00Z,28.1530,-82.8010,-1.0,20.8,2 
COMPS,ioos:station:USF.COMPS:FHP:1,2014-04-01T20:24:00Z,28.1530,-82.8010,-1.0,20.78,2 
COMPS,ioos:station:USF.COMPS:FHP:1,2014-04-01T20:30:00Z,28.1530,-82.8010,-1.0,20.77,2 
COMPS,ioos:station:USF.COMPS:FHP:1,2014-04-01T20:36:00Z,28.1530,-82.8010,-1.0,20.75,2 
COMPS,ioos:station:USF.COMPS:FHP:1,2014-04-01T20:42:00Z,28.1530,-82.8010,-1.0,20.75,2 
COMPS,ioos:station:USF.COMPS:FHP:1,2014-04-01T20:48:00Z,28.1530,-82.8010,-1.0,20.77,2 
COMPS,ioos:station:USF.COMPS:FHP:1,2014-04-01T20:54:00Z,28.1530,-82.8010,-1.0,20.77,2 
COMPS,ioos:station:USF.COMPS:FHP:1,2014-04-01T21:00:00Z,28.1530,-82.8010,-1.0,20.78,2 
COMPS,ioos:station:USF.COMPS:FHP:1,2014-04-01T21:06:00Z,28.1530,-82.8010,-1.0,20.79,2 
COMPS,ioos:station:USF.COMPS:FHP:1,2014-04-01T21:12:00Z,28.1530,-82.8010,-1.0,20.81,2 
COMPS,ioos:station:USF.COMPS:FHP:1,2014-04-01T21:18:00Z,28.1530,-82.8010,-1.0,20.81,2 
COMPS,ioos:station:USF.COMPS:FHP:1,2014-04-01T21:24:00Z,28.1530,-82.8010,-1.0,20.81,2 
COMPS,ioos:station:USF.COMPS:FHP:1,2014-04-01T21:30:00Z,28.1530,-82.8010,-1.0,20.81,2 
COMPS,ioos:station:USF.COMPS:FHP:1,2014-04-01T21:36:00Z,28.1530,-82.8010,-1.0,20.82,2 
COMPS,ioos:station:USF.COMPS:FHP:1,2014-04-01T21:42:00Z,28.1530,-82.8010,-1.0,20.83,2 
COMPS,ioos:station:USF.COMPS:FHP:1,2014-04-01T21:48:00Z,28.1530,-82.8010,-1.0,20.81,2 
COMPS,ioos:station:USF.COMPS:FHP:1,2014-04-01T21:54:00Z,28.1530,-82.8010,-1.0,20.8,2 
COMPS,ioos:station:USF.COMPS:FHP:1,2014-04-01T22:00:00Z,28.1530,-82.8010,-1.0,20.79,2 
COMPS,ioos:station:USF.COMPS:FHP:1,2014-04-01T22:06:00Z,28.1530,-82.8010,-1.0,20.79,2 
COMPS,ioos:station:USF.COMPS:FHP:1,2014-04-01T22:12:00Z,28.1530,-82.8010,-1.0,20.78,2 
COMPS,ioos:station:USF.COMPS:FHP:1,2014-04-01T22:18:00Z,28.1530,-82.8010,-1.0,20.62,2 
COMPS,ioos:station:USF.COMPS:FHP:1,2014-04-01T22:24:00Z,28.1530,-82.8010,-1.0,20.29,2 
COMPS,ioos:station:USF.COMPS:FHP:1,2014-04-01T22:30:00Z,28.1530,-82.8010,-1.0,20.21,2 
COMPS,ioos:station:USF.COMPS:FHP:1,2014-04-01T22:36:00Z,28.1530,-82.8010,-1.0,20.02,2 
COMPS,ioos:station:USF.COMPS:FHP:1,2014-04-01T22:42:00Z,28.1530,-82.8010,-1.0,19.73,2 
COMPS,ioos:station:USF.COMPS:FHP:1,2014-04-01T22:48:00Z,28.1530,-82.8010,-1.0,19.53,2 
COMPS,ioos:station:USF.COMPS:FHP:1,2014-04-01T22:54:00Z,28.1530,-82.8010,-1.0,19.36,2 
COMPS,ioos:station:USF.COMPS:FHP:1,2014-04-01T23:00:00Z,28.1530,-82.8010,-1.0,19.23,2 
COMPS,ioos:station:USF.COMPS:FHP:1,2014-04-01T23:06:00Z,28.1530,-82.8010,-1.0,19.12,2 
COMPS,ioos:station:USF.COMPS:FHP:1,2014-04-01T23:12:00Z,28.1530,-82.8010,-1.0,19.0,2 
COMPS,ioos:station:USF.COMPS:FHP:1,2014-04-01T23:18:00Z,28.1530,-82.8010,-1.0,18.93,2 
COMPS,ioos:station:USF.COMPS:FHP:1,2014-04-01T23:24:00Z,28.1530,-82.8010,-1.0,18.83,2 
COMPS,ioos:station:USF.COMPS:FHP:1,2014-04-01T23:30:00Z,28.1530,-82.8010,-1.0,18.81,2 
COMPS,ioos:station:USF.COMPS:FHP:1,2014-04-01T23:36:00Z,28.1530,-82.8010,-1.0,18.74,2 
COMPS,ioos:station:USF.COMPS:FHP:1,2014-04-01T23:42:00Z,28.1530,-82.8010,-1.0,18.67,2 
COMPS,ioos:station:USF.COMPS:FHP:1,2014-04-01T23:48:00Z,28.1530,-82.8010,-1.0,18.61,2 
COMPS,ioos:station:USF.COMPS:FHP:1,2014-04-01T23:54:00Z,28.1530,-82.8010,-1.0,18.52,2 
COMPS,ioos:station:USF.COMPS:FHP:1,2014-04-02T00:00:00Z,28.1530,-82.8010,-1.0,18.5,2 
COMPS,ioos:station:USF.COMPS:FHP:1,2014-04-02T00:06:00Z,28.1530,-82.8010,-1.0,18.47,2 
COMPS,ioos:station:USF.COMPS:FHP:1,2014-04-02T00:12:00Z,28.1530,-82.8010,-1.0,18.42,2 
COMPS,ioos:station:USF.COMPS:FHP:1,2014-04-02T00:18:00Z,28.1530,-82.8010,-1.0,18.39,2 
COMPS,ioos:station:USF.COMPS:FHP:1,2014-04-02T00:24:00Z,28.1530,-82.8010,-1.0,18.38,2 
COMPS,ioos:station:USF.COMPS:FHP:1,2014-04-02T00:30:00Z,28.1530,-82.8010,-1.0,18.35,2 
COMPS,ioos:station:USF.COMPS:FHP:1,2014-04-02T00:36:00Z,28.1530,-82.8010,-1.0,18.31,2 
COMPS,ioos:station:USF.COMPS:FHP:1,2014-04-02T00:42:00Z,28.1530,-82.8010,-1.0,18.29,2 
COMPS,ioos:station:USF.COMPS:FHP:1,2014-04-02T00:48:00Z,28.1530,-82.8010,-1.0,18.25,2 
COMPS,ioos:station:USF.COMPS:FHP:1,2014-04-02T00:54:00Z,28.1530,-82.8010,-1.0,18.15,2 
COMPS,ioos:station:USF.COMPS:FHP:1,2014-04-02T01:00:00Z,28.1530,-82.8010,-1.0,18.15,2 
COMPS,ioos:station:USF.COMPS:FHP:1,2014-04-02T01:06:00Z,28.1530,-82.8010,-1.0,18.17,2 
COMPS,ioos:station:USF.COMPS:FHP:1,2014-04-02T01:12:00Z,28.1530,-82.8010,-1.0,18.14,2 
COMPS,ioos:station:USF.COMPS:FHP:1,2014-04-02T01:18:00Z,28.1530,-82.8010,-1.0,18.11,2 
COMPS,ioos:station:USF.COMPS:FHP:1,2014-04-02T01:24:00Z,28.1530,-82.8010,-1.0,18.09,2 
COMPS,ioos:station:USF.COMPS:FHP:1,2014-04-02T01:30:00Z,28.1530,-82.8010,-1.0,18.07,2 
COMPS,ioos:station:USF.COMPS:FHP:1,2014-04-02T01:36:00Z,28.1530,-82.8010,-1.0,18.04,2 
COMPS,ioos:station:USF.COMPS:FHP:1,2014-04-02T01:42:00Z,28.1530,-82.8010,-1.0,18.01,2 
COMPS,ioos:station:USF.COMPS:FHP:1,2014-04-02T01:48:00Z,28.1530,-82.8010,-1.0,17.97,2 
COMPS,ioos:station:USF.COMPS:FHP:1,2014-04-02T01:54:00Z,28.1530,-82.8010,-1.0,17.94,2 
COMPS,ioos:station:USF.COMPS:FHP:1,2014-04-02T02:00:00Z,28.1530,-82.8010,-1.0,17.92,2 
COMPS,ioos:station:USF.COMPS:FHP:1,2014-04-02T02:06:00Z,28.1530,-82.8010,-1.0,17.91,2 
COMPS,ioos:station:USF.COMPS:FHP:1,2014-04-02T02:12:00Z,28.1530,-82.8010,-1.0,17.91,2 
COMPS,ioos:station:USF.COMPS:FHP:1,2014-04-02T02:18:00Z,28.1530,-82.8010,-1.0,17.92,2 
COMPS,ioos:station:USF.COMPS:FHP:1,2014-04-02T02:24:00Z,28.1530,-82.8010,-1.0,17.92,2 
COMPS,ioos:station:USF.COMPS:FHP:1,2014-04-02T02:30:00Z,28.1530,-82.8010,-1.0,17.84,2 
COMPS,ioos:station:USF.COMPS:FHP:1,2014-04-02T02:36:00Z,28.1530,-82.8010,-1.0,17.72,2 
COMPS,ioos:station:USF.COMPS:FHP:1,2014-04-02T02:42:00Z,28.1530,-82.8010,-1.0,17.7,2 
COMPS,ioos:station:USF.COMPS:FHP:1,2014-04-02T02:48:00Z,28.1530,-82.8010,-1.0,17.67,2 
COMPS,ioos:station:USF.COMPS:FHP:1,2014-04-02T02:54:00Z,28.1530,-82.8010,-1.0,17.67,2 
COMPS,ioos:station:USF.COMPS:FHP:1,2014-04-02T03:00:00Z,28.1530,-82.8010,-1.0,17.65,2 
COMPS,ioos:station:USF.COMPS:FHP:1,2014-04-02T03:06:00Z,28.1530,-82.8010,-1.0,17.77,2 
COMPS,ioos:station:USF.COMPS:FHP:1,2014-04-02T03:12:00Z,28.1530,-82.8010,-1.0,19.26,2 
COMPS,ioos:station:USF.COMPS:FHP:1,2014-04-02T03:18:00Z,28.1530,-82.8010,-1.0,19.92,2 
COMPS,ioos:station:USF.COMPS:FHP:1,2014-04-02T03:24:00Z,28.1530,-82.8010,-1.0,19.98,2 